Simultaneous Nadir Overpasses (SNOs) Predictions

Prediction of SNOs between NOAA-21 and METOP-B Satellite Orbit:

Table of predicted SNOs for the next 14.0 days since TLE Epoch: 11/22/2025
Index Date (NOAA-21) Time (NOAA-21) Lat,Lon (NOAA-21) SZA (NOAA-21 ) Date (METOP-B) Time (METOP-B) Lat,Lon (METOP-B) SZA (METOP-B ) Distance(km) Time Diff (sec)
1 11/29/2025 23:10:23 -75.09, -1.33 83.10 11/29/2025 23:11:29 -75.02, 1.76 83.31 89.17 66
2 11/30/2025 00:01:05 74.93, 166.45 96.73 11/30/2025 00:02:13 74.86, 168.66 96.56 64.64 68
3 11/30/2025 00:51:46 -74.76, -25.76 83.47 11/30/2025 00:52:57 -74.73, -24.39 83.56 40.27 71
4 11/30/2025 01:42:28 74.59, 142.01 96.36 11/30/2025 01:43:41 74.57, 142.53 96.31 15.52 73
5 11/30/2025 02:33:10 -74.47, -50.35 83.77 11/30/2025 02:34:24 -74.48, -50.38 83.77 1.92 74
6 11/30/2025 03:23:56 74.49, 116.90 96.27 11/30/2025 03:25:05 74.47, 116.93 96.23 2.51 69
7 11/30/2025 04:14:40 -74.47, -75.72 83.76 11/30/2025 04:15:46 -74.48, -75.72 83.76 1.76 66
8 11/30/2025 05:05:26 74.49, 91.53 96.28 11/30/2025 05:06:27 74.47, 91.58 96.24 2.84 61
9 11/30/2025 05:56:10 -74.47,-101.09 83.75 11/30/2025 05:57:08 -74.48,-101.07 83.75 1.93 58
10 11/30/2025 06:46:56 74.49, 66.15 96.29 11/30/2025 06:47:49 74.47, 66.24 96.25 3.32 53
11 11/30/2025 07:37:40 -74.46,-126.46 83.74 11/30/2025 07:38:30 -74.48,-126.41 83.74 2.36 50
12 11/30/2025 08:28:25 74.44, 40.91 96.24 11/30/2025 08:29:11 74.47, 40.89 96.26 3.25 46
13 11/30/2025 09:19:10 -74.46,-151.83 83.74 11/30/2025 09:19:52 -74.48,-151.75 83.73 2.94 42
14 11/30/2025 10:09:55 74.44, 15.54 96.25 11/30/2025 10:10:33 74.47, 15.55 96.27 3.25 38
15 11/30/2025 11:00:40 -74.46,-177.20 83.73 11/30/2025 11:01:15 -74.43,-177.23 83.76 3.47 35
16 11/30/2025 11:51:25 74.44, -9.83 96.26 11/30/2025 11:51:55 74.47, -9.80 96.28 3.44 30
17 11/30/2025 12:42:10 -74.46, 157.43 83.72 11/30/2025 12:42:37 -74.43, 157.43 83.75 3.30 27
18 11/30/2025 13:32:55 74.44, -35.20 96.27 11/30/2025 13:33:18 74.42, -35.27 96.25 2.92 23
19 11/30/2025 14:23:40 -74.46, 132.06 83.71 11/30/2025 14:23:59 -74.43, 132.09 83.74 3.32 19
20 11/30/2025 15:14:25 74.44, -60.57 96.28 11/30/2025 15:14:40 74.42, -60.61 96.26 2.40 15
21 11/30/2025 16:05:09 -74.41, 106.82 83.75 11/30/2025 16:05:21 -74.43, 106.74 83.73 3.17 12
22 11/30/2025 16:55:55 74.43, -85.94 96.29 11/30/2025 16:56:02 74.42, -85.96 96.27 2.06 7
23 11/30/2025 17:46:39 -74.41, 81.45 83.74 11/30/2025 17:46:43 -74.43, 81.40 83.72 2.72 4
24 11/30/2025 18:37:25 74.43,-111.31 96.30 11/30/2025 18:37:24 74.41,-111.30 96.28 2.00 1
25 11/30/2025 19:28:09 -74.40, 56.08 83.73 11/30/2025 19:28:05 -74.42, 56.05 83.71 2.45 4
26 11/30/2025 20:18:55 74.43,-136.68 96.31 11/30/2025 20:18:46 74.41,-136.65 96.29 2.24 9
27 11/30/2025 21:09:39 -74.40, 30.71 83.72 11/30/2025 21:09:27 -74.42, 30.71 83.70 2.41 12
28 11/30/2025 22:00:25 74.43,-162.06 96.32 11/30/2025 22:00:08 74.41,-161.99 96.30 2.70 17
29 11/30/2025 22:51:09 -74.40, 5.34 83.71 11/30/2025 22:50:49 -74.42, 5.36 83.69 2.62 20
30 11/30/2025 23:41:55 74.43, 172.57 96.33 11/30/2025 23:41:30 74.41, 172.66 96.31 3.29 25
31 12/01/2025 00:32:39 -74.40, -20.04 83.70 12/01/2025 00:32:11 -74.42, -19.98 83.68 3.03 28
32 12/01/2025 01:23:24 74.38, 147.33 96.29 12/01/2025 01:22:52 74.41, 147.32 96.32 3.62 32
33 12/01/2025 02:14:09 -74.40, -45.41 83.69 12/01/2025 02:13:34 -74.37, -45.45 83.71 3.12 35
34 12/01/2025 03:04:54 74.38, 121.96 96.30 12/01/2025 03:04:14 74.41, 121.98 96.33 3.68 40
35 12/01/2025 03:55:39 -74.40, -70.78 83.68 12/01/2025 03:54:56 -74.37, -70.80 83.70 2.82 43
36 12/01/2025 04:46:24 74.37, 96.59 96.30 12/01/2025 04:45:37 74.36, 96.50 96.30 3.06 47
37 12/01/2025 05:37:09 -74.39, -96.15 83.67 12/01/2025 05:36:18 -74.37, -96.14 83.69 2.72 51
38 12/01/2025 06:27:54 74.37, 71.22 96.31 12/01/2025 06:26:59 74.36, 71.16 96.31 2.43 55
39 12/01/2025 07:18:39 -74.39,-121.52 83.67 12/01/2025 07:17:40 -74.37,-121.48 83.68 2.84 59
40 12/01/2025 08:09:24 74.37, 45.85 96.32 12/01/2025 08:08:21 74.36, 45.82 96.32 1.93 63
41 12/01/2025 09:00:08 -74.39,-146.89 83.66 12/01/2025 08:59:01 -74.37,-146.83 83.67 3.17 67
42 12/01/2025 09:50:53 74.37, 20.47 96.33 12/01/2025 09:49:42 74.36, 20.47 96.33 1.68 71
43 12/01/2025 10:41:37 -74.34,-172.13 83.70 12/01/2025 10:40:23 -74.37,-172.17 83.66 3.09 74
44 12/01/2025 11:32:20 74.22, -4.52 96.18 12/01/2025 11:31:07 74.21, -5.25 96.21 22.14 73
45 12/01/2025 12:23:02 -74.09, 163.12 83.96 12/01/2025 12:21:51 -74.07, 161.74 83.91 42.01 71
46 12/01/2025 13:13:43 73.88, -29.03 95.82 12/01/2025 13:12:35 73.91, -31.32 95.96 70.69 68
47 12/01/2025 14:04:26 -73.80, 138.47 84.27 12/01/2025 14:03:19 -73.77, 135.68 84.16 86.50 67



Historial Predications of SNOs between NOAA-21 and METOP-B
